IRM086 ZGSZ-OIIE

Flight info

Callsign IRM086
Flight time N/A
Altitude 36000
Route TOM9YD TOMUD R200 BIGRO/K0924S0980 R200 LH R339 WUY/K0911S1040 R339 BSE A599 LXI W148 XSJ W146 GULOT A599 LINSO/N0494F340 A599 LSO A201 ANSOS/N0488F360 A201 BODOG Q18 LKN/N0478F380 M890 JAL R594 DPN G333 MERUN R471 RK G452 ZDN L125 DAPAP G208 TOVUS L125 BOPAG/N0471F280 G208 RADAL RADA2V
Aircraft A343/H-SDE2E3FGHIJ4J5M1RWXYZ/LB2D1

Departure

Time N/A
Airport Shenzhen Bao'an International Airport (ZGSZ)

Arrival

Time 2026-05-05 09:02
Airport Imam Khomeini International Airport (OIIE)
Time Latitude Longitude Altitude Speed Heading
2026-05-05 08:25 33.48414 53.95047 32088 ft 443 kts 300°
2026-05-05 08:26 33.51904 53.88897 32079 ft 443 kts 300°
2026-05-05 08:26 33.53956 53.86046 32062 ft 452 kts 313°
2026-05-05 08:26 33.56336 53.83593 32113 ft 452 kts 313°
2026-05-05 08:27 33.61062 53.78483 32091 ft 453 kts 312°
2026-05-05 08:27 33.65737 53.73386 32075 ft 451 kts 313°
2026-05-05 08:28 33.70400 53.68283 32075 ft 450 kts 313°
2026-05-05 08:28 33.75082 53.63156 32062 ft 451 kts 312°
2026-05-05 08:29 33.79744 53.58044 32057 ft 450 kts 312°
2026-05-05 08:30 33.86717 53.50380 32054 ft 451 kts 312°
2026-05-05 08:30 33.91403 53.45217 32032 ft 451 kts 313°
2026-05-05 08:31 33.96076 53.40061 32018 ft 451 kts 312°
2026-05-05 08:31 34.00716 53.34935 31999 ft 450 kts 311°
2026-05-05 08:32 34.05386 53.29770 32023 ft 451 kts 312°
2026-05-05 08:32 34.10060 53.24591 32026 ft 450 kts 312°
2026-05-05 08:33 34.14704 53.19434 32004 ft 451 kts 311°
2026-05-05 08:33 34.19352 53.14269 32024 ft 451 kts 311°
2026-05-05 08:34 34.24008 53.09092 32015 ft 449 kts 311°
2026-05-05 08:34 34.28639 53.03921 32015 ft 448 kts 311°
2026-05-05 08:35 34.33254 52.98767 32002 ft 450 kts 311°
2026-05-05 08:35 34.37868 52.93603 32010 ft 450 kts 311°
2026-05-05 08:36 34.42486 52.88429 32021 ft 450 kts 311°
2026-05-05 08:36 34.47144 52.83203 32035 ft 450 kts 311°
2026-05-05 08:37 34.51775 52.77999 32045 ft 451 kts 311°
2026-05-05 08:37 34.56383 52.72809 32046 ft 453 kts 311°
2026-05-05 08:38 34.61051 52.67547 32033 ft 452 kts 311°
2026-05-05 08:38 34.65671 52.62330 32013 ft 452 kts 311°
2026-05-05 08:38 34.67993 52.59704 31586 ft 452 kts 311°
2026-05-05 08:39 34.70290 52.57105 30883 ft 446 kts 311°
2026-05-05 08:39 34.72553 52.54546 30436 ft 436 kts 311°
2026-05-05 08:39 34.74778 52.52024 29969 ft 427 kts 311°
2026-05-05 08:39 34.76918 52.49596 29503 ft 419 kts 311°
2026-05-05 08:40 34.79046 52.47179 29047 ft 410 kts 311°
2026-05-05 08:40 34.81134 52.44810 28582 ft 409 kts 311°
2026-05-05 08:40 34.83247 52.42399 28058 ft 411 kts 311°
2026-05-05 08:40 34.85345 52.40016 27514 ft 410 kts 310°
2026-05-05 08:41 34.87418 52.37658 27057 ft 404 kts 311°
2026-05-05 08:41 34.89482 52.35307 26606 ft 400 kts 311°
2026-05-05 08:41 34.91364 52.32847 26164 ft 389 kts 301°
2026-05-05 08:41 34.92989 52.30236 25826 ft 388 kts 301°
2026-05-05 08:42 34.94641 52.27604 25400 ft 387 kts 301°
2026-05-05 08:42 34.96274 52.24993 24984 ft 385 kts 301°
2026-05-05 08:42 34.97891 52.22406 24555 ft 382 kts 301°
2026-05-05 08:42 34.99504 52.19831 24093 ft 377 kts 301°
2026-05-05 08:43 35.01090 52.17290 23634 ft 375 kts 301°
2026-05-05 08:43 35.02663 52.14764 23190 ft 372 kts 301°
2026-05-05 08:43 35.04231 52.12253 22759 ft 370 kts 301°
2026-05-05 08:43 35.05782 52.09762 22338 ft 367 kts 301°
2026-05-05 08:44 35.07323 52.07293 21926 ft 363 kts 301°
2026-05-05 08:44 35.08846 52.04844 21505 ft 361 kts 300°
2026-05-05 08:44 35.10361 52.02404 21103 ft 359 kts 300°
2026-05-05 08:44 35.11888 51.99945 20700 ft 357 kts 301°
2026-05-05 08:45 35.13387 51.97531 20298 ft 355 kts 300°
2026-05-05 08:45 35.14884 51.95119 19917 ft 352 kts 301°
2026-05-05 08:45 35.16360 51.92739 19517 ft 349 kts 301°
2026-05-05 08:45 35.17829 51.90368 19119 ft 348 kts 301°
2026-05-05 08:46 35.19292 51.88009 18751 ft 346 kts 300°
2026-05-05 08:46 35.20744 51.85656 18367 ft 354 kts 301°
2026-05-05 08:46 35.22245 51.83217 17957 ft 363 kts 301°
2026-05-05 08:46 35.23785 51.80734 17513 ft 364 kts 301°
2026-05-05 08:47 35.25310 51.78264 17076 ft 362 kts 301°
2026-05-05 08:47 35.26851 51.75769 16634 ft 361 kts 302°
2026-05-05 08:47 35.28361 51.73317 16199 ft 359 kts 302°
2026-05-05 08:47 35.29864 51.70879 15758 ft 359 kts 302°
2026-05-05 08:48 35.31366 51.68437 15318 ft 358 kts 302°
2026-05-05 08:48 35.32896 51.65950 14862 ft 357 kts 303°
2026-05-05 08:48 35.34183 51.63414 14390 ft 350 kts 288°
2026-05-05 08:48 35.34720 51.60560 13967 ft 343 kts 276°
2026-05-05 08:49 35.35148 51.57654 13520 ft 344 kts 277°
2026-05-05 08:49 35.35549 51.54770 13067 ft 342 kts 277°
2026-05-05 08:49 35.35951 51.51960 12628 ft 333 kts 277°
2026-05-05 08:49 35.36351 51.49171 12204 ft 324 kts 277°
2026-05-05 08:50 35.36731 51.46481 11821 ft 320 kts 277°
2026-05-05 08:50 35.36933 51.43799 11443 ft 314 kts 262°
2026-05-05 08:50 35.36503 51.41199 11138 ft 312 kts 255°
2026-05-05 08:50 35.36012 51.38601 10809 ft 313 kts 255°
2026-05-05 08:51 35.35511 51.36015 10499 ft 312 kts 255°
2026-05-05 08:51 35.34999 51.33405 10426 ft 306 kts 254°
2026-05-05 08:51 35.34517 51.30925 10355 ft 296 kts 254°
2026-05-05 08:51 35.34047 51.28503 10243 ft 284 kts 255°
2026-05-05 08:52 35.33604 51.26219 10146 ft 269 kts 254°
2026-05-05 08:52 35.33186 51.24020 9882 ft 263 kts 255°
2026-05-05 08:52 35.33163 51.21794 9578 ft 262 kts 281°
2026-05-05 08:52 35.33663 51.19663 9357 ft 259 kts 283°
2026-05-05 08:53 35.34197 51.17554 9090 ft 260 kts 284°
2026-05-05 08:53 35.34728 51.15429 8826 ft 259 kts 284°
2026-05-05 08:53 35.35261 51.13323 8570 ft 258 kts 284°
2026-05-05 08:53 35.35798 51.11222 8316 ft 257 kts 285°
2026-05-05 08:54 35.36316 51.09132 8070 ft 256 kts 285°
2026-05-05 08:54 35.36827 51.07052 7827 ft 255 kts 285°
2026-05-05 08:54 35.37331 51.04982 7598 ft 253 kts 284°
2026-05-05 08:54 35.37847 51.02909 7366 ft 252 kts 284°
2026-05-05 08:55 35.38352 51.00874 7138 ft 252 kts 285°
2026-05-05 08:55 35.38862 50.98803 6904 ft 251 kts 285°
2026-05-05 08:55 35.39359 50.96767 6696 ft 249 kts 284°
2026-05-05 08:55 35.39858 50.94765 6627 ft 244 kts 284°
2026-05-05 08:56 35.40367 50.92788 6547 ft 240 kts 285°
2026-05-05 08:56 35.40845 50.90882 6450 ft 231 kts 283°
2026-05-05 08:56 35.40901 50.89001 6364 ft 211 kts 253°
2026-05-05 08:56 35.40784 50.87228 6411 ft 214 kts 282°
2026-05-05 08:57 35.41533 50.85633 6474 ft 222 kts 318°
2026-05-05 08:57 35.42930 50.84806 6506 ft 230 kts 352°
2026-05-05 08:57 35.44511 50.85045 6537 ft 234 kts 25°
2026-05-05 08:57 35.45775 50.86298 6530 ft 235 kts 56°
2026-05-05 08:58 35.46601 50.87988 6418 ft 230 kts 65°
2026-05-05 08:58 35.47255 50.89750 6270 ft 221 kts 67°
2026-05-05 08:58 35.47848 50.91437 6267 ft 209 kts 69°
2026-05-05 08:58 35.48209 50.93086 6233 ft 201 kts 96°
2026-05-05 08:59 35.47851 50.94700 6218 ft 193 kts 113°
2026-05-05 08:59 35.47371 50.96270 6055 ft 200 kts 112°
2026-05-05 08:59 35.46892 50.97872 5919 ft 192 kts 113°
2026-05-05 08:59 35.46444 50.99391 5658 ft 186 kts 112°
2026-05-05 09:00 35.46011 51.00842 5420 ft 177 kts 111°
2026-05-05 09:00 35.45600 51.02237 5176 ft 171 kts 110°
2026-05-05 09:00 35.45141 51.03563 4948 ft 169 kts 110°
2026-05-05 09:00 35.44704 51.04916 4718 ft 169 kts 109°
2026-05-05 09:01 35.44291 51.06280 4479 ft 167 kts 111°
2026-05-05 09:01 35.43883 51.07608 4207 ft 167 kts 112°
2026-05-05 09:01 35.43445 51.08906 3957 ft 165 kts 110°
2026-05-05 09:01 35.43036 51.10242 3700 ft 164 kts 99°
2026-05-05 09:02 35.42716 51.11577 3479 ft 164 kts 108°
2026-05-05 09:02 35.42350 51.12866 3336 ft 154 kts 107°
2026-05-05 09:02 35.42068 51.13922 3327 ft 95 kts 115°
2026-05-05 09:02 35.41916 51.14431 3327 ft 39 kts 116°
2026-05-05 09:03 35.41770 51.14654 3327 ft 23 kts 138°
2026-05-05 09:03 35.41659 51.14769 3327 ft 17 kts 144°
2026-05-05 09:03 35.41598 51.14784 3327 ft 5 kts 193°
2026-05-05 09:03 35.41548 51.14766 3327 ft 9 kts 198°
2026-05-05 09:04 35.41470 51.14733 3327 ft 13 kts 200°
2026-05-05 09:04 35.41378 51.14697 3327 ft 13 kts 183°
2026-05-05 09:04 35.41329 51.14767 3327 ft 10 kts 110°
2026-05-05 09:04 35.41308 51.14840 3327 ft 7 kts 109°
2026-05-05 09:05 35.41286 51.14916 3327 ft 6 kts 110°
2026-05-05 09:05 35.41277 51.14949 3327 ft 6 kts 108°
2026-05-05 09:05 35.41260 51.15005 3326 ft 7 kts 109°
2026-05-05 09:05 35.41242 51.15070 3327 ft 8 kts 110°
2026-05-05 09:06 35.41219 51.15143 3327 ft 9 kts 110°
2026-05-05 09:06 35.41197 51.15223 3326 ft 10 kts 109°
2026-05-05 09:06 35.41174 51.15311 3326 ft 10 kts 104°
2026-05-05 09:06 35.41156 51.15379 3326 ft 5 kts 124°
2026-05-05 09:07 35.41136 51.15388 3326 ft 2 kts 172°
2026-05-05 09:07 35.41112 51.15386 3326 ft 3 kts 188°
2026-05-05 09:07 35.41090 51.15380 3326 ft 1 kts 195°
2026-05-05 09:07 35.41079 51.15375 3326 ft 3 kts 198°
2026-05-05 09:08 35.41073 51.15373 3326 ft 0 kts 198°
2026-05-05 09:08 35.41072 51.15373 3326 ft 0 kts 198°